Location: Newark
(48.5667°N, 12.8167°E)
Time: 22:46:29
(UTC+00:00)

METEOR M2 - Pass Details

Date: 20 November 2019
Orbit: 818 x 828 km, 98.5° (Epoch: 11 December)

Event Time Altitude Azimuth Distance (km) Brightness Sun altitude
Exits shadow 17:55:56 18° 12° (NNE) 1,928 ? -24.7°
Drops below altitude 10° 17:57:30 10° 2° (N) 2,436 ? -25.0°
Sets 18:00:03 0° 353° (N) 3,371 ? -25.4°
